Lid_Strength_Index
0 2 1 3 8 8 10 8 6 6 6 5 6 7 7 5 7 11 1 1 0 1 -0 -0 -0 -0 -1 -1 -1 -1 -1 -1 -1 -1 -1 -1 -1 -1 -1 -1 -1 -1 -1 -1 -2 -2 -2 -2 -1
3 3 3 5 10 11 10 7 7 6 6 5 5 5 6 7 4 3 3 1 0 0 -0 -0 -0 -0 -1 -1 -1 -1 -1 -1 -1 -1 -1 -1 -1 -1 -1 -1 -1 -1 -1 -1 -1 -1 -1 -1 -1
3 3 6 7 9 11 10 6 6 5 5 5 5 4 5 6 3 3 1 0 0 0 -0 -0 -0 -0 -1 -1 -1 -1 -1 -1 -1 -1 -1 -1 -1 -1 -1 -1 -1 -1 -1 -1 -1 -1 -2 -1 -1
4 4 5 9 9 8 8 6 5 6 6 6 6 7 3 2 2 1 0 0 0 0 -0 -0 -0 -0 -1 -1 -1 -1 -1 -1 -1 -1 -1 -1 -1 -1 -1 -1 -1 -1 -1 -1 -1 -1 -2 -2 -1
3 4 7 8 8 7 6 5 6 6 6 6 6 7 5 2 1 1 1 0 1 0 0 -0 -0 -0 -1 -1 -1 -1 -1 -1 -1 -1 -1 -1 -1 -1 -1 -1 -1 -1 -1 -1 -1 -1 -1 -2 -2
6 5 9 10 8 6 5 4 5 6 6 5 6 6 5 1 1 1 0 1 0 1 0 -0 -0 -0 -0 -0 -1 -1 -1 -1 -1 -1 -1 -1 -1 -1 -1 -1 -1 -1 -1 -1 -1 -1 -2 -2 -2
7 7 9 8 8 7 6 4 5 6 5 5 5 7 5 3 2 1 0 0 0 0 0 -0 -0 -1 -1 -1 -1 -0 -0 -1 -1 -1 -1 -1 -1 -1 -1 -1 -1 -1 -1 -1 -1 -1 -2 -2 -2
6 7 9 8 9 8 5 5 4 6 6 4 4 7 6 3 3 2 1 1 1 1 0 0 -0 -0 -0 -0 -1 -1 -1 -1 -1 -1 -1 -1 -1 -1 -1 -1 -1 -1 -1 -1 -1 -2 -2 -2 -2
5 9 10 8 8 8 5 7 5 5 6 5 5 5 4 3 2 3 3 1 1 1 1 0 0 -0 -0 -0 -0 -1 -1 -1 -1 -1 -1 -0 -1 -1 -1 -1 -1 -1 -1 -1 -2 -2 -2 -2 -2
7 9 8 7 7 7 6 7 6 6 7 6 5 4 3 3 3 3 3 2 2 2 1 1 0 0 -0 -0 -0 -0 -1 -1 -1 -1 -1 -0 -1 -1 -1 -1 -1 -1 -1 -1 -2 -2 -2 -1 -1
6 9 7 7 6 6 7 7 6 7 8 6 6 5 4 4 2 4 4 3 2 2 1 1 1 0 0 0 -0 -0 -0 -0 -0 -1 -1 -1 -1 -0 -0 -0 -0 -1 -1 -0 -1 -1 -1 -1 -0
7 6 6 6 5 6 7 6 7 6 6 5 5 5 5 4 4 3 3 3 2 2 1 1 1 1 0 -0 0 0 0 -0 -0 -0 -0 -0 0 0 0 0 -0 -0 -0 -0 -0 -0 -0 -0 -1
6 5 5 5 5 5 5 6 6 6 5 4 4 4 5 5 4 3 2 1 1 1 1 1 1 1 1 0 0 0 0 0 -0 -0 -0 -0 0 0 -0 0 -0 -0 -0 -0 -0 -0 -0 0 -0
5 5 5 5 5 5 6 6 5 5 4 4 4 5 5 5 5 4 3 2 1 0 0 -0 1 1 0 1 0 0 0 -0 -0 -0 -0 -0 -0 0 0 0 0 -0 -0 -0 -0 0 0 0 -0
5 7 6 5 5 5 4 7 7 4 4 5 4 4 4 4 4 4 3 2 1 1 1 0 0 0 1 0 0 0 0 -0 0 -0 -0 -0 -0 -0 -0 0 0 -0 -1 -1 -0 -0 -0 0 0
6 6 9 6 6 5 5 9 6 4 4 4 4 4 4 3 4 3 3 2 1 0 1 1 0 1 1 1 0 1 0 0 0 -0 -0 -0 -0 -1 -0 0 0 -0 -0 -0 0 0 1 1 1
7 10 9 8 5 6 6 8 6 4 4 5 4 4 4 3 2 2 2 2 1 1 1 1 1 1 1 1 1 0 0 0 0 -0 -0 -0 -0 -0 -0 0 0 -0 0 0 0 1 1 1 1
10 10 9 9 7 6 7 7 6 5 5 5 5 4 4 4 3 2 1 1 1 1 1 1 1 1 0 1 0 1 1 1 0 0 0 -0 -0 -0 -0 -0 0 -0 0 0 0 1 1 1 1
8 8 9 8 6 7 8 7 6 5 5 5 5 4 4 4 2 2 2 1 1 1 1 1 2 1 1 1 2 2 2 1 1 0 -0 -0 -0 -0 0 0 0 0 1 1 1 1 1 1 1
8 9 9 8 6 7 8 8 6 6 6 5 5 5 4 4 3 2 2 2 2 2 1 1 1 1 1 1 1 1 1 1 1 1 0 0 0 -0 0 0 1 0 1 1 1 1 2 2 1
8 9 9 9 7 7 8 9 8 6 5 5 4 4 4 4 4 3 3 2 2 2 1 2 1 1 1 1 1 1 1 1 2 1 1 0 0 -0 0 0 0 0 0 1 1 1 1 3 2
10 7 8 9 9 12 8 13 9 8 8 6 6 5 4 4 3 3 3 2 2 2 1 1 1 1 1 1 1 2 3 3 2 2 1 1 0 0 0 0 0 0 0 1 1 1 1 1 3
9 7 8 8 9 10 10 12 11 9 10 7 6 5 4 4 3 3 3 2 2 1 1 1 1 1 1 1 1 2 2 2 1 1 1 1 1 0 0 0 0 0 1 0 1 1 1 1 2
6 7 8 8 10 15 11 15 15 12 11 8 6 5 4 4 3 3 2 2 2 2 1 1 2 2 1 1 1 2 2 2 2 2 2 2 1 1 0 0 0 0 0 1 1 0 1 1 1
7 10 16 17 17 17 10 15 13 10 9 7 6 5 4 4 3 3 3 3 2 2 2 2 2 2 2 1 1 1 2 2 2 2 2 2 2 1 1 1 1 1 0 0 0 1 1 1 1
9 10 16 22 20 16 10 14 12 8 7 6 6 6 4 4 3 4 3 3 3 2 2 2 2 2 2 2 2 1 1 1 2 1 1 2 2 1 1 1 0 0 0 0 0 1 1 1 1
9 12 11 17 14 16 13 10 10 8 7 6 6 7 6 5 4 3 3 3 3 3 2 2 1 2 2 2 1 2 1 1 2 1 1 1 1 1 1 1 1 0 0 0 0 1 2 2 2
8 7 14 15 20 21 13 13 16 11 9 7 7 8 6 4 5 4 3 3 2 2 2 1 1 2 1 2 1 2 1 1 1 1 1 1 1 1 1 1 1 1 1 1 2 2 2 3 3
10 12 11 12 13 19 20 15 8 8 8 7 6 6 5 5 5 5 3 3 2 2 2 2 1 1 1 1 1 2 1 1 1 1 1 1 1 1 1 2 1 1 2 2 3 3 3 4 5
9 9 10 16 16 14 15 15 7 7 6 6 6 5 5 4 4 3 3 2 3 2 2 2 1 2 1 1 1 2 1 1 1 1 1 0 1 1 2 1 1 2 2 3 4 4 4 5 6